Regional Weather Roundup
Issued by NWS

Home | Current Version | Previous Version | Text Only | Print | Product List | Glossary Off
Versions: 1 2 3 4 5 6 7 8 9 10 11 12 13 14 15 16 17 18 19 20 21 22 23 24 25 26 27 28 29 30 31 32 33 34 35 36 37 38 39 40 41 42 43 44 45 46 47 48 49 50

000
ASUS45 KBOU 310307
RWRCO

WEATHER ROUNDUP FOR COLORADO
NATIONAL WEATHER SERVICE DENVER/BOULDER CO
900 PM MDT SUN AUG 30 2015

NOTE: "FAIR" INDICATES FEW OR NO CLOUDS BELOW 12000 FEET WITH NO
SIGNIFICANT WEATHER AND/OR OBSTRUCTIONS TO VISIBILITY.

COZ001>005-013-030-031-310400-
...NORTHWEST COLORADO...

CITY           SKY/WX    TMP DP  RH WIND       PRES   REMARKS
CRAIG          CLOUDY    64  51  62 E12       30.15F
HAYDEN         NOT AVBL
MEEKER         CLOUDY    64  53  67 W3        30.18R THUNDER
MOUNT WERNER   NOT AVBL
STEAMBOAT SPGS CLOUDY    57  53  84 CALM      30.26R
WALDEN         CLOUDY    54  45  71 NE7       30.30R
$$

COZ006>008-011-310400-
...WEST CENTRAL VALLEYS...

CITY           SKY/WX    TMP DP  RH WIND       PRES   REMARKS
GRAND JUNCTION RAIN      63  58  83 NE15      30.12R
MONTROSE       LGT RAIN  65  55  70 W6G25     30.18R
EAGLE          CLOUDY    72  46  40 W5        30.18R
RIFLE          CLOUDY    73  49  42 W17       30.13R
DELTA          RAIN      70  56  61 N10G20    30.13R
NUCLA          CLOUDY    72  45  37 CALM      30.20R
$$

COZ017>023-064>068-310400-
...SOUTHWEST COLORADO...

CITY           SKY/WX    TMP DP  RH WIND       PRES   REMARKS
DURANGO        MOCLDY    69  48  47 W13       30.19R
CORTEZ         MOCLDY    66  53  63 E5        30.18R
PAGOSA SPRINGS MOCLDY    69  42  36 CALM      30.27R
TELLURIDE      CLOUDY    61  44  52 CALM      30.41R
WOLF CREEK PAS MOCLDY    50  37  62 SW15      30.61R
$$

COZ009-010-012-014-032>034-037-058>063-310400-
...CENTRAL COLORADO...

CITY           SKY/WX    TMP DP  RH WIND       PRES   REMARKS
ASPEN          MOCLDY    64  46  52 S8        30.24R
BUENA VISTA    PTCLDY    69  36  29 NW7       30.25R
COPPER MTN     CLOUDY    54  36  50 S13       30.59R
BERTHOUD PASS  MOCLDY    43  32  65 N7        30.63S
COTTONWOOD PAS CLOUDY    64  34  32 W8        30.40R
GUNNISON       MOCLDY    63  45  51 W3        30.30R
KREMMLING      CLOUDY    64  43  45 N10G17    30.27R
LEADVILLE      MOCLDY    54  37  52 CALM      30.41S
MONARCH PASS   PTCLDY    50  36  57 W14       30.69R
SALIDA         PTCLDY    72  37  28 SW8       30.29R
SUNLIGHT       CLOUDY    55  39  54 CALM      30.51R
WILKERSON PASS MOCLDY    55  32  41 SW9G18    30.53R
$$

COZ069>075-310400-
...SAN LUIS VALLEY/SANGRE DE CRISTO MOUNTAINS...

CITY           SKY/WX    TMP DP  RH WIND       PRES   REMARKS
ALAMOSA        PTCLDY    67  42  40 CALM      30.22R
LA VETA PASS   CLEAR     59  34  38 MISG      30.43R
SAGUACHE       PTCLDY    61  39  44 NW7       30.26R
$$

COZ035-036-038>040-310400-
...NORTHERN COLORADO FRONT RANGE...

CITY           SKY/WX    TMP DP  RH WIND       PRES   REMARKS
DENVER INTL AP PTCLDY    74  40  29 S12       29.99R
DMNS CITY PARK   N/A     78  44  29 SW2G12    29.99R
AURORA         MOCLDY    80  40  23 S12       30.01R
FRONT RANGE AP PTCLDY    77  39  25 SE10      30.01R
ERIE MUNI ARPT MOCLDY    80  38  21 SW3       29.96R
BOULDER MUN AP MOCLDY    84  37  18 SW20G33   29.98R
CENTENNIAL     MOCLDY    77  40  26 S9        30.02R
BROOMFIELD     NOT AVBL
FORT COLLINS   MOCLDY    79  45  29 N10       29.97R
LONGMONT       MOCLDY    81  42  25 CALM      29.97R
$$

COZ041-046-047-076>085-087-088-310400-
...PIKES PEAK/PALMER DIVIDE AND SOUTHERN FOOTHILLS...

CITY           SKY/WX    TMP DP  RH WIND       PRES   REMARKS
COLO. SPRINGS  PTCLDY    76  40  27 SE7       30.09R
A. F. ACADEMY  PTCLDY    73  40  30 E8        30.12R
ELLICOTT       NOT AVBL
FALCON         PTCLDY    67  42  40 MISG      30.16R
FORT CARSON    PTCLDY    77  41  27 W3        30.06R
LIMON          CLEAR     72  49  44 SE14      30.04R
MONUMENT HILL  PTCLDY    68  36  30 S12       30.15R
TRINIDAD       CLEAR     79  52  38 S23G31    30.05R
$$

COZ042>045-048>051-090-091-310400-
...NORTHEAST COLORADO...

CITY           SKY/WX    TMP DP  RH WIND       PRES   REMARKS
GREELEY ARPT   PTCLDY    79  45  29 SE8       29.94R
AKRON          CLEAR     77  49  37 SE15      29.97R
BURLINGTON     CLEAR     71  44  37 SE13      30.00R
WRAY           CLOUDY    80  41  24 SE18      29.94R
STERLING       CLEAR     81  52  36 S16       29.89R
HOLYOKE        CLEAR     79  45  29 S13       29.92R
FORT MORGAN    CLEAR     77  42  28 SE9       29.94R
$$

COZ086-089-092>099-310400-
...SOUTHEAST COLORADO...

CITY           SKY/WX    TMP DP  RH WIND       PRES   REMARKS
PUEBLO         CLEAR     78  43  28 E8        29.94R
LA JUNTA       CLEAR     81  48  31 SE9       29.95R
LAMAR          CLEAR     78  49  35 SE16      29.93R
SPRINGFIELD    NOT AVBL
$$



USA.gov is the U.S. government's official web portal to all federal, state and local government web resources and services.